This demonstration page uses our WeatherBlox Daily Observations layout. Learn more.

Left ArrowRight Arrow

41.12389, -100.76542

Hourly Observations for January 11, 2019

Temp ( °F °C ) Dew Point ( °F °C ) Humidity (%) Winds ( mph kmh ) Pressure ( in mb ) Visibility ( mi km ) Precip ( " mm )
12:53 am 00:53 Clear 28 -2.2 25 -3.9 88 88 Calm 30.05 1018 10 16 0.00 0.00
1:53 am 01:53 Clear 28 -2.2 26 -3.3 92 92 Calm 30.04 1017 10 16 0.00 0.00
2:53 am 02:53 Mostly Clear 30 -1.1 27 -2.8 88 88 NW 5 7 30.04 1017 10 16 0.00 0.00
3:53 am 03:53 Mostly Clear 31 -0.6 28 -2.2 89 89 NNW 6 9 30.05 1018 10 16 0.00 0.00
4:53 am 04:53 Mostly Cloudy 32 0 29 -1.7 88 88 W 3 6 30.05 1018 10 16 0.00 0.00
5:53 am 05:53 Mostly Cloudy 35 1.7 29 -1.7 78 78 WNW 6 9 30.05 1018 10 16 0.00 0.00
6:53 am 06:53 Cloudy 37 2.8 28 -2.2 70 70 Calm 30.06 1018 10 16 0.00 0.00
7:53 am 07:53 Mostly Cloudy 35 1.7 27 -2.8 72 72 ENE 5 7 30.07 1018 10 16 0.00 0.00
8:53 am 08:53 Mostly Cloudy 34 1.1 27 -2.8 76 76 NE 3 6 30.10 1019 10 16 0.00 0.00
9:53 am 09:53 Mostly Cloudy 35 1.7 27 -2.8 72 72 ENE 8 13 30.11 1020 10 16 0.00 0.00
10:53 am 10:53 Cloudy 36 2.2 27 -2.8 70 70 NE 10 17 30.12 1020 10 16 0.00 0.00
11:53 am 11:53 Cloudy 37 2.8 27 -2.8 67 67 NE 9 15 30.12 1020 10 16 0.00 0.00
12:53 pm 12:53 Cloudy 39 3.9 27 -2.8 62 62 NE 13 20 30.08 1019 10 16 0.00 0.00
1:53 pm 13:53 Mostly Cloudy 40 4.4 26 -3.3 58 58 NE 13 20 30.07 1018 10 16 0.00 0.00
2:53 pm 14:53 Cloudy 40 4.4 25 -3.9 55 55 NNE 14 22 30.07 1018 10 16 0.00 0.00
3:53 pm 15:53 Cloudy 41 5 25 -3.9 53 53 ENE 9 15 30.09 1019 10 16 0.00 0.00
4:53 pm 16:53 Cloudy 41 5 26 -3.3 55 55 NE 6 9 30.09 1019 10 16 0.00 0.00
5:53 pm 17:53 Cloudy 39 3.9 26 -3.3 60 60 Calm 30.11 1020 10 16 0.00 0.00
6:53 pm 18:53 Cloudy 38 3.3 27 -2.8 65 65 N 3 6 30.11 1020 10 16 0.00 0.00
7:53 pm 19:53 Cloudy 38 3.3 28 -2.2 68 68 NNE 13 20 30.11 1020 10 16 0.00 0.00
8:53 pm 20:53 Cloudy 39 3.9 29 -1.7 67 67 NNE 14 22 30.11 1020 10 16 0.00 0.00
9:53 pm 21:53 Cloudy 38 3.3 29 -1.7 70 70 NNE 13 20 30.13 1020 10 16 0.00 0.00
10:53 pm 22:53 Cloudy 37 2.8 28 -2.2 70 70 NE 12 19 30.15 1021 10 16 0.00 0.00
11:53 pm 23:53 Cloudy 35 1.7 28 -2.2 76 76 NE 10 17 30.17 1022 10 16 0.00 0.00

Powered by AerisWeather